Погода в Техас Сити

США     29°23′02″N   94°54′08″W
темп.,
°C
ветер,
м/с
пор.,
м/с
влажн.,
%
обл.,
%
осадки,
мм/ч
давл.,
гПа
погр.,
м
19 апреля, пн
пн1901:00+15ссв476344 0.0 1018339
04:00+14ссв47645 0.0 1018323
07:00+13ссв35679 0.0 1019232
10:00+18св345090 0.0 1019681
13:00+20в3340100 0.0 10181234
16:00+21вюв4341100 0.0 10161190
19:00+18ю4651100 0.0 1016481
22:00+17з235351 0.0 1017240
20 апреля, вт
вт2001:00+17ссз235898 0.0 1017286
04:00+16ссз226764 0.0 1016159
07:00+15ссв11743 0.0 1017127
10:00+20ю12520 0.0 1018778
13:00+23ююв33450 0.0 10161329
16:00+24юв44445 0.0 10151412
19:00+21ююв55540 0.0 1015398
22:00+19юз24611 0.0 1018194
21 апреля, ср
ср2101:00+14с812670 0.0 1021525
04:00+11с710635 0.0 1021487
07:00+9с711664 0.0 1023464
10:00+12ссв56572 0.0 1025651
13:00+18св554418 0.0 1024873
16:00+21всв444011 0.0 10211073
19:00+20в34440 0.0 1020828
22:00+18в46494 0.0 1021410
22 апреля, чт
чт2201:00+17в685755 0.0 1021584
04:00+15всв68602 0.0 1021520
07:00+15в586815 0.0 1021469
10:00+18всв676799 0.0 1022907
13:00+19в7872100 0.0 10211045
16:00+19в8107499 0.1 10181009
19:00+20вюв91178100 0.2 1017994
22:00+20вюв8118196 0.3 1018883
23 апреля, пт
пт2301:00+20юв81184100 0.3 1017808
04:00+20вюв71188100 0.4 1015696
07:00+20вюв61095100 3.3 1015608
10:00+21вюв81294100 1.1 1014742
13:00+23юв71193100 3.2 1012682
16:00+25ю71283100 3.4 1008909
19:00+23ююв7129395 5.4 1007815
22:00+23ю61394100 0.1 1007624